Salida, CO

6:39 AM MDT on April 23, 2017 (GMT -0600)
Salida

Weather History for KANK - April, 2014

Change the Weather History Date:

Tuesday, April 8, 2014

  Actual Average (KGUC) Record (KGUC)
Temperature  
Mean Temperature 46 °F -  
Max Temperature 63 °F 48 °F 64 °F (2016)
Min Temperature 29 °F 21 °F 12 °F (2003)
Degree Days  
Heating Degree Days 19    
Moisture  
Dew Point 21 °F    
Average Humidity 42    
Maximum Humidity 77    
Minimum Humidity 18    
Precipitation  
Precipitation 0.00 in - - ()
Sea Level Pressure  
Sea Level Pressure 30.36 in    
Wind  
Wind Speed 6 mph (WNW)    
Max Wind Speed 20 mph    
Max Gust Speed 29 mph    
Visibility 10 miles    
Events      
Averages and records for this station are not official NWS values.
T = Trace of Precipitation, MM = Missing Value Source: NWS Daily Summary

Daily Weather History Graph

Daily Weather History Graph

Search for Another Location

Airport or City:

Trip Planner

Search our weather history database for the weather conditions in past years. The results will help you decide how hot, cold, wet, or windy it might be!

Date:

Astronomy

Apr. 08, 2014 Rise Set
Actual Time 6:38 AM MDT 7:34 PM MDT
Civil Twilight 6:11 AM MDT 8:01 PM MDT
Nautical Twilight 5:39 AM MDT 8:33 PM MDT
Astronomical Twilight 5:06 AM MDT 9:06 PM MDT
Moon 1:34 PM MDT (4/8) 2:48 AM MDT (4/8)
Length of Visible Light 13h 50m
Length of Day
12h 55m
Waxing Gibbous, 63% of the Moon is Illuminated
Apr 8
Waxing Gibbous
Apr 15
Full
Apr 22
Last Quarter
Apr 29
New
May 6
First Quarter

Hourly Weather History & Observations

Time (MDT) Temp. Windchill Dew Point Humidity Pressure Visibility Wind Dir Wind Speed Gust Speed Precip Events Conditions
12:15 AM 38.5 °F 33.4 °F 21.7 °F 51% 30.35 in 10.0 mi NNW 6.9 mph - N/A   Clear
12:35 AM 37.0 °F 33.3 °F 22.1 °F 55% 30.35 in 10.0 mi NNW 4.6 mph - N/A   Clear
12:55 AM 34.3 °F - 22.1 °F 61% 30.35 in 10.0 mi Calm Calm - N/A   Clear
1:15 AM 35.8 °F - 22.3 °F 58% 30.35 in 10.0 mi Calm Calm - N/A   Clear
1:35 AM 33.3 °F - 22.1 °F 64% 30.35 in 10.0 mi Calm Calm - N/A   Clear
1:55 AM 33.6 °F - 22.1 °F 63% 30.35 in 10.0 mi Calm Calm - N/A   Clear
2:15 AM 32.4 °F 27.9 °F 22.6 °F 67% 30.35 in 10.0 mi WSW 4.6 mph - N/A   Clear
2:35 AM 32.9 °F 29.8 °F 22.6 °F 66% 30.35 in 10.0 mi West 3.5 mph - N/A   Clear
2:55 AM 32.7 °F 27.3 °F 22.3 °F 65% 30.35 in 10.0 mi West 5.8 mph - N/A   Clear
3:15 AM 32.2 °F 26.7 °F 22.8 °F 68% 30.35 in 10.0 mi WSW 5.8 mph - N/A   Clear
3:35 AM 32.2 °F - 22.6 °F 68% 30.35 in 10.0 mi Calm Calm - N/A   Clear
3:55 AM 32.2 °F 28.9 °F 22.8 °F 68% 30.35 in 10.0 mi NNW 3.5 mph - N/A   Clear
4:15 AM 31.1 °F - 22.8 °F 71% 30.35 in 10.0 mi Calm Calm - N/A   Clear
4:35 AM 30.4 °F - 22.6 °F 73% 30.36 in 10.0 mi Calm Calm - N/A   Clear
4:55 AM 32.2 °F - 23.0 °F 69% 30.37 in 10.0 mi Calm Calm - N/A   Clear
5:15 AM 30.6 °F - 22.3 °F 71% 30.37 in 10.0 mi Calm Calm - N/A   Clear
5:35 AM 30.9 °F - 22.6 °F 71% 30.38 in 10.0 mi Calm Calm - N/A   Clear
5:55 AM 29.5 °F 23.4 °F 22.3 °F 75% 30.38 in 10.0 mi SW 5.8 mph - N/A   Clear
6:15 AM 29.8 °F 26.3 °F 22.1 °F 73% 30.38 in 10.0 mi WNW 3.5 mph - N/A   Clear
6:35 AM 29.7 °F - 22.1 °F 73% 30.38 in 10.0 mi Calm Calm - N/A   Clear
6:55 AM 29.7 °F - 22.5 °F 75% 30.39 in 10.0 mi Calm Calm - N/A   Clear
7:15 AM 29.7 °F - 23.2 °F 77% 30.39 in 10.0 mi Calm Calm - N/A   Clear
7:35 AM 33.6 °F 30.6 °F 24.3 °F 69% 30.40 in 10.0 mi SW 3.5 mph - N/A   Clear
7:55 AM 37.2 °F 33.6 °F 24.8 °F 61% 30.40 in 10.0 mi West 4.6 mph - N/A   Clear
8:15 AM 41.0 °F 36.4 °F 23.7 °F 50% 30.39 in 10.0 mi NW 6.9 mph - N/A   Clear
8:35 AM 41.5 °F 37.8 °F 24.8 °F 51% 30.40 in 10.0 mi NNW 5.8 mph - N/A   Clear
8:55 AM 42.3 °F 38.6 °F 24.8 °F 50% 30.40 in 10.0 mi NW 5.8 mph - N/A   Clear
9:15 AM 44.6 °F 40.2 °F 22.8 °F 42% 30.39 in 10.0 mi NNW 8.1 mph - N/A   Clear
9:55 AM 47.7 °F - 20.5 °F 34% 30.40 in 10.0 mi NW 8.1 mph - N/A   Clear
10:15 AM 48.7 °F - 20.5 °F 33% 30.39 in 10.0 mi NNW 3.5 mph - N/A   Clear
10:35 AM 50.9 °F - 21.0 °F 31% 30.39 in 10.0 mi NW 8.1 mph - N/A   Clear
10:55 AM 52.7 °F - 21.4 °F 29% 30.40 in 10.0 mi NNW 8.1 mph - N/A   Clear
11:15 AM 53.6 °F - 21.0 °F 28% 30.40 in 10.0 mi North 8.1 mph 17.3 mph N/A   Clear
11:35 AM 55.0 °F - 21.0 °F 27% 30.39 in 10.0 mi ENE 4.6 mph - N/A   Clear
11:55 AM 55.6 °F - 20.5 °F 26% 30.39 in 10.0 mi Calm Calm - N/A   Clear
12:15 PM 56.5 °F - 20.5 °F 25% 30.38 in 10.0 mi NNW 5.8 mph - N/A   Clear
12:35 PM 58.5 °F - 20.7 °F 23% 30.37 in 10.0 mi ENE 8.1 mph - N/A   Clear
12:55 PM 57.6 °F - 19.9 °F 23% 30.37 in 10.0 mi Calm Calm - N/A   Clear
1:15 PM 60.3 °F - 19.2 °F 20% 30.37 in 10.0 mi East 3.5 mph - N/A   Clear
1:35 PM 60.4 °F - 18.5 °F 20% 30.36 in 10.0 mi Calm Calm - N/A   Clear
1:55 PM 61.0 °F - 18.3 °F 19% 30.35 in 10.0 mi South 3.5 mph - N/A   Clear
2:35 PM 62.4 °F - 18.1 °F 18% 30.35 in 10.0 mi Calm Calm - N/A   Clear
2:55 PM 63.5 °F - 18.5 °F 18% 30.35 in 10.0 mi West 16.1 mph 26.5 mph N/A   Clear
3:15 PM 63.1 °F - 19.0 °F 18% 30.34 in 10.0 mi West 12.7 mph 19.6 mph N/A   Clear
3:35 PM 63.0 °F - 18.9 °F 18% 30.34 in 10.0 mi WNW 16.1 mph 24.2 mph N/A   Clear
3:55 PM 63.1 °F - 18.3 °F 18% 30.33 in 10.0 mi WSW 18.4 mph 25.3 mph N/A   Clear
4:15 PM 62.6 °F - 20.5 °F 20% 30.33 in 10.0 mi West 19.6 mph 25.3 mph N/A   Clear
4:35 PM 62.1 °F - 20.1 °F 20% 30.33 in 10.0 mi West 16.1 mph 25.3 mph N/A   Clear
4:55 PM 61.2 °F - 20.5 °F 21% 30.33 in 10.0 mi West 18.4 mph 28.8 mph N/A   Clear
5:15 PM 61.5 °F - 20.5 °F 21% 30.33 in 10.0 mi WSW 17.3 mph 26.5 mph N/A   Clear
5:35 PM 61.5 °F - 19.6 °F 20% 30.33 in 10.0 mi West 18.4 mph 25.3 mph N/A   Clear
5:55 PM 60.8 °F - 20.1 °F 21% 30.33 in 10.0 mi WSW 19.6 mph 27.6 mph N/A   Clear
6:15 PM 60.3 °F - 18.7 °F 20% 30.33 in 10.0 mi WSW 19.6 mph 25.3 mph N/A   Clear
6:35 PM 59.4 °F - 18.7 °F 21% 30.33 in 10.0 mi WSW 18.4 mph 24.2 mph N/A   Clear
6:55 PM 58.3 °F - 19.2 °F 22% 30.34 in 10.0 mi WSW 16.1 mph 21.9 mph N/A   Clear
7:15 PM 56.7 °F - 19.2 °F 23% 30.35 in 10.0 mi WSW 18.4 mph 21.9 mph N/A   Clear
7:35 PM 55.2 °F - 20.3 °F 26% 30.35 in 10.0 mi WSW 15.0 mph 23.0 mph N/A   Clear
7:55 PM 54.5 °F - 20.8 °F 27% 30.35 in 10.0 mi WSW 16.1 mph - N/A   Clear
8:15 PM 52.2 °F - 21.9 °F 31% 30.37 in 10.0 mi WSW 13.8 mph 17.3 mph N/A   Clear
8:35 PM 51.4 °F - 22.5 °F 32% 30.37 in 10.0 mi WSW 12.7 mph - N/A   Clear
8:55 PM 50.9 °F - 22.3 °F 33% 30.37 in 10.0 mi WSW 9.2 mph - N/A   Clear
9:15 PM 51.1 °F - 22.5 °F 33% 30.38 in 10.0 mi West 11.5 mph 16.1 mph N/A   Clear
9:35 PM 49.8 °F - 22.6 °F 34% 30.39 in 10.0 mi WNW 4.6 mph - N/A   Clear
9:55 PM 47.7 °F - 23.5 °F 39% 30.38 in 10.0 mi WNW 3.5 mph - N/A   Clear
10:15 PM 46.4 °F 44.3 °F 24.1 °F 42% 30.38 in 10.0 mi West 4.6 mph - N/A   Clear
10:35 PM 45.9 °F 41.7 °F 24.1 °F 42% 30.37 in 10.0 mi WNW 8.1 mph - N/A   Clear
10:55 PM 47.8 °F - 21.9 °F 36% 30.37 in 10.0 mi NW 6.9 mph - N/A   Clear
11:15 PM 49.3 °F - 20.8 °F 33% 30.37 in 10.0 mi NNW 3.5 mph - N/A   Clear
11:35 PM 44.4 °F 42.0 °F 20.8 °F 39% 30.37 in 10.0 mi NNW 4.6 mph - N/A   Clear
11:55 PM 45.1 °F 42.0 °F 21.0 °F 38% 30.37 in 10.0 mi WSW 5.8 mph - N/A   Clear